• In Lithuania
  • List of Countries
  • For 7 days
  • Water Temperature
  • Satellite Maps
  • Weather Map
  • Weather Widgets
  • user-avatar
    Login

    Hourly Weather Eisenstadt

    Today, 24 October, Tuesday

    Time Temperature Precipitation Wind Pressure Humidity
    00:00 +6°C° 0 mm 7 mps 723 mmHg 81%
    01:00 +5°C° 0 mm 6 mps 723 mmHg 82%
    02:00 +5°C° 0 mm 6 mps 723 mmHg 81%
    03:00 +5°C° 0 mm 7 mps 724 mmHg 81%
    04:00 +5°C° 0 mm 7 mps 724 mmHg 81%
    05:00 +5°C° 0 mm 7 mps 724 mmHg 81%
    06:00 +5°C° 0 mm 6 mps 724 mmHg 81%
    07:00 +5°C° 0 mm 6 mps 725 mmHg 81%
    08:00 +6°C° 0 mm 7 mps 725 mmHg 77%
    09:00 +7°C° 0 mm 8 mps 725 mmHg 73%
    10:00 +9°C° 0 mm 8 mps 726 mmHg 68%
    11:00 +10°C° 0 mm 8 mps 726 mmHg 67%
    12:00 +10°C° 0 mm 8 mps 726 mmHg 66%
    13:00 +11°C° 0 mm 8 mps 726 mmHg 65%
    14:00 +10°C° 0 mm 7 mps 726 mmHg 66%
    15:00 +10°C° 0 mm 7 mps 726 mmHg 68%
    16:00 +10°C° 0 mm 6 mps 726 mmHg 69%
    17:00 +9°C° 0 mm 6 mps 727 mmHg 72%
    18:00 +8°C° 0 mm 5 mps 727 mmHg 75%
    19:00 +7°C° 0 mm 5 mps 728 mmHg 78%
    20:00 +7°C° 0 mm 4 mps 728 mmHg 79%
    21:00 +7°C° 0 mm 4 mps 729 mmHg 81%
    22:00 +6°C° 0 mm 4 mps 729 mmHg 82%
    23:00 +7°C° 0 mm 3 mps 729 mmHg 84%

    Tomorrow, 25 October, Wednesday

    Time Temperature Precipitation Wind Pressure Humidity
    00:00 +7°C° 0 mm 3 mps 729 mmHg 85%
    01:00 +6°C° 0 mm 2 mps 729 mmHg 87%
    02:00 +6°C° 0 mm 2 mps 729 mmHg 88%
    03:00 +6°C° 0 mm 2 mps 729 mmHg 90%
    04:00 +7°C° 0 mm 1 mps 729 mmHg 91%
    05:00 +7°C° 0 mm 1 mps 729 mmHg 91%
    06:00 +7°C° 0 mm 1 mps 729 mmHg 91%
    07:00 +7°C° 0 mm 1 mps 729 mmHg 91%
    08:00 +9°C° 0 mm 1 mps 729 mmHg 82%
    09:00 +11°C° 0 mm 1 mps 729 mmHg 74%
    10:00 +13°C° 0 mm 1 mps 730 mmHg 66%
    11:00 +14°C° 0 mm 1 mps 730 mmHg 63%
    12:00 +16°C° 0 mm 1 mps 729 mmHg 59%
    13:00 +18°C° 0 mm 1 mps 729 mmHg 56%
    14:00 +16°C° 0 mm 1 mps 729 mmHg 60%
    15:00 +15°C° 0 mm 1 mps 729 mmHg 64%
    16:00 +15°C° 0 mm 2 mps 729 mmHg 68%
    17:00 +13°C° 0 mm 2 mps 729 mmHg 72%
    18:00 +12°C° 0 mm 2 mps 729 mmHg 76%
    19:00 +10°C° 0 mm 2 mps 729 mmHg 80%
    20:00 +10°C° 0 mm 2 mps 729 mmHg 81%
    21:00 +10°C° 0 mm 2 mps 730 mmHg 81%
    22:00 +10°C° 0 mm 2 mps 730 mmHg 82%
    23:00 +10°C° 0 mm 2 mps 730 mmHg 82%

    Day after tomorrow, 26 October, Thursday

    Time Temperature Precipitation Wind Pressure Humidity
    00:00 +10°C° 0 mm 1 mps 730 mmHg 82%
    01:00 +10°C° 0 mm 1 mps 730 mmHg 82%
    02:00 +10°C° 0 mm 1 mps 730 mmHg 83%
    03:00 +10°C° 0 mm 1 mps 730 mmHg 83%
    04:00 +10°C° 0 mm 1 mps 730 mmHg 83%
    05:00 +10°C° 0 mm 1 mps 730 mmHg 84%
    06:00 +10°C° 0 mm 1 mps 730 mmHg 84%
    07:00 +10°C° 0 mm 1 mps 730 mmHg 84%
    08:00 +12°C° 0 mm 1 mps 730 mmHg 76%
    09:00 +14°C° 0 mm 1 mps 730 mmHg 69%
    10:00 +16°C° 0 mm 1 mps 730 mmHg 61%
    11:00 +18°C° 0 mm 1 mps 730 mmHg 59%
    12:00 +19°C° 0 mm 1 mps 730 mmHg 56%
    13:00 +20°C° 0 mm 1 mps 729 mmHg 53%
    14:00 +19°C° 0 mm 1 mps 729 mmHg 58%
    15:00 +19°C° 0 mm 1 mps 729 mmHg 63%
    16:00 +18°C° 0 mm 1 mps 728 mmHg 67%
    17:00 +15°C° 0 mm 1 mps 728 mmHg 72%
    18:00 +14°C° 0 mm 1 mps 728 mmHg 76%
    19:00 +13°C° 0 mm 1 mps 728 mmHg 81%
    20:00 +13°C° 0 mm 1 mps 728 mmHg 80%
    21:00 +12°C° 0 mm 1 mps 728 mmHg 80%
    22:00 +12°C° 0 mm 1 mps 728 mmHg 80%
    23:00 +12°C° 0 mm 1 mps 728 mmHg 80%

    27 October, Friday

    Time Temperature Precipitation Wind Pressure Humidity
    00:00 +12°C° 0 mm 1 mps 727 mmHg 80%
    01:00 +12°C° 0 mm 1 mps 727 mmHg 80%
    02:00 +11°C° 0 mm 1 mps 727 mmHg 80%
    03:00 +11°C° 0 mm 1 mps 726 mmHg 80%
    04:00 +11°C° 0 mm 1 mps 726 mmHg 80%
    05:00 +11°C° 0 mm 1 mps 726 mmHg 79%
    06:00 +11°C° 0 mm 1 mps 725 mmHg 78%
    07:00 +11°C° 0 mm 1 mps 725 mmHg 77%
    08:00 +13°C° 0 mm 2 mps 725 mmHg 72%
    09:00 +15°C° 0 mm 2 mps 724 mmHg 67%
    10:00 +16°C° 0 mm 2 mps 724 mmHg 61%
    11:00 +17°C° 0 mm 3 mps 723 mmHg 59%
    12:00 +18°C° 0 mm 3 mps 723 mmHg 57%
    13:00 +18°C° 0 mm 3 mps 722 mmHg 54%
    14:00 +17°C° 0.1 mm 4 mps 721 mmHg 59%
    15:00 +17°C° 0.1 mm 4 mps 721 mmHg 64%
    16:00 +15°C° 0.1 mm 4 mps 721 mmHg 69%
    17:00 +13°C° 0.6 mm 4 mps 721 mmHg 73%
    18:00 +12°C° 0.6 mm 4 mps 721 mmHg 76%
    19:00 +10°C° 0.6 mm 4 mps 721 mmHg 80%
    20:00 +10°C° 0.4 mm 4 mps 722 mmHg 80%
    21:00 +8°C° 0.4 mm 4 mps 722 mmHg 80%
    22:00 +8°C° 0.4 mm 4 mps 723 mmHg 79%
    23:00 +7°C° 0 mm 4 mps 723 mmHg 79%

    28 October, Saturday

    Time Temperature Precipitation Wind Pressure Humidity
    00:00 +7°C° 0 mm 4 mps 723 mmHg 80%
    01:00 +7°C° 0 mm 3 mps 723 mmHg 80%
    02:00 +6°C° 0 mm 4 mps 723 mmHg 80%
    03:00 +6°C° 0 mm 4 mps 723 mmHg 80%
    04:00 +5°C° 0 mm 4 mps 723 mmHg 80%
    05:00 +5°C° 0 mm 4 mps 723 mmHg 80%
    06:00 +5°C° 0 mm 4 mps 723 mmHg 79%
    07:00 +5°C° 0 mm 5 mps 722 mmHg 78%
    08:00 +6°C° 0 mm 5 mps 723 mmHg 73%
    09:00 +7°C° 0 mm 6 mps 723 mmHg 68%
    10:00 +8°C° 0 mm 6 mps 723 mmHg 63%
    11:00 +9°C° 0 mm 6 mps 722 mmHg 60%
    12:00 +9°C° 0 mm 6 mps 722 mmHg 57%
    13:00 +10°C° 0 mm 6 mps 721 mmHg 54%
    14:00 +9°C° 0 mm 5 mps 721 mmHg 56%
    15:00 +10°C° 0 mm 4 mps 720 mmHg 58%
    16:00 +9°C° 0 mm 3 mps 720 mmHg 60%
    17:00 +8°C° 0 mm 2 mps 720 mmHg 65%
    18:00 +7°C° 0 mm 2 mps 720 mmHg 69%
    19:00 +6°C° 0 mm 2 mps 720 mmHg 74%
    20:00 +6°C° 0 mm 2 mps 719 mmHg 74%
    21:00 +6°C° 0 mm 2 mps 719 mmHg 74%
    22:00 +7°C° 0 mm 1 mps 719 mmHg 74%
    23:00 +6°C° 0 mm 2 mps 719 mmHg 75%

    29 October, Sunday

    Time Temperature Precipitation Wind Pressure Humidity
    00:00 +6°C° 0 mm 2 mps 718 mmHg 76%
    01:00 +5°C° 0 mm 2 mps 718 mmHg 77%
    02:00 +5°C° 0 mm 2 mps 717 mmHg 78%
    03:00 +5°C° 0 mm 2 mps 717 mmHg 80%
    04:00 +4°C° 0 mm 2 mps 716 mmHg 81%
    05:00 +4°C° 0 mm 2 mps 715 mmHg 81%
    06:00 +4°C° 0 mm 2 mps 715 mmHg 81%
    07:00 +4°C° 0 mm 2 mps 715 mmHg 81%
    08:00 +5°C° 0.1 mm 2 mps 714 mmHg 75%
    09:00 +7°C° 0.1 mm 3 mps 714 mmHg 69%
    10:00 +8°C° 0.1 mm 3 mps 714 mmHg 63%
    11:00 +8°C° 0.5 mm 3 mps 714 mmHg 64%
    12:00 +7°C° 0.5 mm 4 mps 714 mmHg 65%
    13:00 +7°C° 0.5 mm 4 mps 715 mmHg 66%
    14:00 +6°C° 0.1 mm 5 mps 715 mmHg 65%
    15:00 +6°C° 0.1 mm 5 mps 715 mmHg 65%
    16:00 +5°C° 0.1 mm 5 mps 716 mmHg 65%
    17:00 +3°C° 0 mm 5 mps 716 mmHg 67%
    18:00 +4°C° 0 mm 4 mps 717 mmHg 69%
    19:00 +3°C° 0 mm 4 mps 718 mmHg 72%
    20:00 +1°C° 0 mm 4 mps 718 mmHg 72%
    21:00 +1°C° 0 mm 4 mps 719 mmHg 73%
    22:00 +1°C° 0 mm 3 mps 719 mmHg 73%
    23:00 0°C° 0 mm 4 mps 720 mmHg 73%

    30 October, Monday

    Time Temperature Precipitation Wind Pressure Humidity
    00:00 0°C° 0 mm 4 mps 720 mmHg 73%
    01:00 0°C° 0 mm 4 mps 720 mmHg 73%
    02:00 0°C° 0 mm 4 mps 720 mmHg 73%
    03:00 0°C° 0 mm 4 mps 720 mmHg 73%
    04:00 -1°C° 0 mm 4 mps 720 mmHg 74%
    05:00 0°C° 0 mm 4 mps 720 mmHg 73%
    06:00 0°C° 0 mm 4 mps 721 mmHg 73%
    07:00 0°C° 0 mm 4 mps 721 mmHg 72%
    08:00 +1°C° 0 mm 5 mps 721 mmHg 66%
    09:00 +3°C° 0 mm 6 mps 722 mmHg 60%
    10:00 +4°C° 0 mm 8 mps 722 mmHg 55%
    11:00 +5°C° 0 mm 7 mps 722 mmHg 53%
    12:00 +5°C° 0 mm 7 mps 723 mmHg 52%
    13:00 +6°C° 0 mm 7 mps 723 mmHg 51%
    14:00 +5°C° 0.1 mm 6 mps 723 mmHg 55%
    15:00 +6°C° 0.1 mm 5 mps 723 mmHg 60%
    16:00 +5°C° 0.1 mm 4 mps 723 mmHg 64%
    17:00 +5°C° 0.1 mm 3 mps 724 mmHg 68%
    18:00 +4°C° 0.1 mm 3 mps 724 mmHg 72%
    19:00 +4°C° 0.1 mm 3 mps 725 mmHg 75%
    20:00 +5°C° 0.2 mm 2 mps 725 mmHg 78%
    21:00 +5°C° 0.2 mm 2 mps 725 mmHg 81%
    22:00 +5°C° 0.2 mm 2 mps 726 mmHg 83%
    23:00 +5°C° 0.2 mm 2 mps 726 mmHg 84%
    Show more